This demonstration page uses our WeatherBlox Daily Observations layout. Learn more.

Left ArrowRight Arrow

44.8408, -93.29828

Hourly Observations for August 13, 2022

Temp ( °F °C ) Dew Point ( °F °C ) Humidity (%) Winds ( mph kmh ) Pressure ( in mb ) Visibility ( mi km ) Precip ( " mm )
12:53 am 00:53 Cloudy 66 18.9 58 14.4 75 75 SE 12 19 29.94 1014 10 16 0.00 0.00
1:53 am 01:53 Cloudy 66 18.9 58 14.4 75 75 ESE 7 11 29.91 1013 10 16 0.00 0.00
2:53 am 02:53 Mostly Cloudy 65 18.3 58 14.4 78 78 ESE 10 17 29.91 1013 10 16 0.00 0.00
3:53 am 03:53 Clear 65 18.3 59 15 81 81 E 8 13 29.89 1012 10 16 0.00 0.00
4:53 am 04:53 Clear 64 17.8 59 15 84 84 NE 8 13 29.89 1012 10 16 0.00 0.00
5:53 am 05:53 Mostly Clear 63 17.2 58 14.4 84 84 NE 8 13 29.90 1013 10 16 0.00 0.00
6:53 am 06:53 Mostly Cloudy 64 17.8 59 15 84 84 NNE 7 11 29.91 1013 10 16 0.00 0.00
7:01 am 07:01 Mostly Cloudy 63 17.2 58 14.4 84 84 NNE 8 13 29.92 1013 10 16 0.00 0.00
7:53 am 07:53 Cloudy 64 17.8 59 15 84 84 NNE 10 17 29.93 1014 10 16 0.00 0.00
8:53 am 08:53 Cloudy 65 18.3 59 15 81 81 NNE 12 19 29.94 1014 10 16 0.00 0.00
9:53 am 09:53 Cloudy 65 18.3 59 15 81 81 N 12 19 29.95 1014 10 16 0.00 0.00
10:53 am 10:53 Cloudy 65 18.3 59 15 81 81 N 14 22 29.98 1015 10 16 0.00 0.00
11:53 am 11:53 Cloudy 68 20 59 15 73 73 NE 13 20 29.98 1015 10 16 0.00 0.00
12:53 pm 12:53 Cloudy 69 20.6 59 15 70 70 N 12 19 30.00 1016 10 16 0.00 0.00
1:53 pm 13:53 Cloudy 72 22.2 60 15.6 66 66 N 12 19 30.00 1016 10 16 0.00 0.00
2:53 pm 14:53 Cloudy 72 22.2 60 15.6 66 66 NNE 12 19 29.99 1016 10 16 0.00 0.00
3:53 pm 15:53 Cloudy 72 22.2 59 15 64 64 NNE 14 22 29.99 1016 10 16 0.00 0.00
4:53 pm 16:53 Cloudy 70 21.1 59 15 68 68 NNE 13 20 30.00 1016 10 16 0.00 0.00
5:00 pm 17:00 Cloudy 70 21.1 59 15 68 68 NNE 12 19 29.98 1015 10 16 0.00 0.00
5:17 pm 17:17 Cloudy 70 21.1 59 15 68 68 N 8 13 30.00 1016 10 16 0.00 0.00
5:33 pm 17:33 Cloudy 70 21.1 58 14.4 66 66 NNE 14 22 30.00 1016 10 16 0.00 0.00
5:53 pm 17:53 Cloudy 70 21.1 58 14.4 66 66 NNE 12 19 30.01 1016 10 16 0.00 0.00
6:13 pm 18:13 Cloudy 69 20.6 58 14.4 68 68 N 13 20 30.00 1016 10 16 0.00 0.00
6:53 pm 18:53 Cloudy 68 20 57 13.9 68 68 NNE 14 22 30.01 1016 10 16 0.00 0.00
7:53 pm 19:53 Cloudy 67 19.4 57 13.9 71 71 NNE 9 15 30.02 1017 10 16 0.00 0.00
8:53 pm 20:53 Cloudy 66 18.9 57 13.9 73 73 NE 12 19 30.02 1017 10 16 0.00 0.00
9:53 pm 21:53 Cloudy 66 18.9 57 13.9 73 73 NE 8 13 30.03 1017 10 16 0.00 0.00
10:53 pm 22:53 Cloudy 65 18.3 56 13.3 73 73 NNE 9 15 30.04 1017 10 16 0.00 0.00
11:53 pm 23:53 Cloudy 65 18.3 57 13.9 76 76 NNE 6 9 30.04 1017 10 16 0.00 0.00

Powered by AerisWeather